SAS346Y ENGM-ESSA

Flight info

Callsign SAS346Y
Flight time 0h 40m
Altitude 29000
Route MASEV Z183 LEGPO DCT ELTOK
Aircraft A320/M-SDE3FGHIRWY/LB1

Departure

Time 2026-05-05 14:42
Airport Oslo-Gardermoen International Airport (ENGM)

Arrival

Time 2026-05-05 15:23
Airport Stockholm-Arlanda Airport (ESSA)
Time Latitude Longitude Altitude Speed Heading
2026-05-05 14:01 60.19346 11.10269 685 ft 0 kts 16°
2026-05-05 14:31 60.19345 11.10268 685 ft 1 kts 16°
2026-05-05 14:31 60.19329 11.10259 677 ft 3 kts 16°
2026-05-05 14:31 60.19310 11.10249 683 ft 3 kts 15°
2026-05-05 14:31 60.19292 11.10244 683 ft 3 kts 340°
2026-05-05 14:32 60.19279 11.10264 677 ft 3 kts 297°
2026-05-05 14:32 60.19270 11.10300 681 ft 3 kts 307°
2026-05-05 14:32 60.19262 11.10318 677 ft 1 kts 331°
2026-05-05 14:32 60.19248 11.10335 682 ft 3 kts 319°
2026-05-05 14:33 60.19235 11.10364 678 ft 3 kts 295°
2026-05-05 14:33 60.19228 11.10402 679 ft 3 kts 280°
2026-05-05 14:33 60.19224 11.10440 681 ft 3 kts 286°
2026-05-05 14:33 60.19220 11.10472 679 ft 1 kts 286°
2026-05-05 14:34 60.19219 11.10475 677 ft 1 kts 286°
2026-05-05 14:34 60.19219 11.10476 677 ft 0 kts 286°
2026-05-05 14:36 60.19220 11.10470 679 ft 2 kts 286°
2026-05-05 14:36 60.19228 11.10416 681 ft 6 kts 286°
2026-05-05 14:37 60.19252 11.10330 677 ft 6 kts 344°
2026-05-05 14:37 60.19260 11.10399 678 ft 8 kts 119°
2026-05-05 14:37 60.19227 11.10533 682 ft 12 kts 107°
2026-05-05 14:37 60.19200 11.10712 683 ft 15 kts 106°
2026-05-05 14:38 60.19170 11.10929 683 ft 17 kts 106°
2026-05-05 14:38 60.19113 11.11090 682 ft 14 kts 177°
2026-05-05 14:38 60.19008 11.11035 682 ft 17 kts 197°
2026-05-05 14:38 60.18888 11.10969 683 ft 20 kts 193°
2026-05-05 14:39 60.18599 11.10803 682 ft 15 kts 195°
2026-05-05 14:39 60.18486 11.10742 682 ft 19 kts 195°
2026-05-05 14:39 60.18350 11.10663 678 ft 22 kts 196°
2026-05-05 14:40 60.18069 11.10503 679 ft 23 kts 194°
2026-05-05 14:40 60.17904 11.10406 678 ft 26 kts 194°
2026-05-05 14:40 60.17731 11.10305 678 ft 25 kts 194°
2026-05-05 14:41 60.17644 11.10375 673 ft 11 kts 104°
2026-05-05 14:41 60.17624 11.10516 676 ft 3 kts 107°
2026-05-05 14:41 60.17616 11.10571 676 ft 7 kts 107°
2026-05-05 14:41 60.17612 11.10758 679 ft 20 kts 56°
2026-05-05 14:42 60.17825 11.10907 681 ft 59 kts 15°
2026-05-05 14:42 60.18428 11.11262 681 ft 117 kts 15°
2026-05-05 14:42 60.19353 11.11796 832 ft 149 kts 11°
2026-05-05 14:42 60.20274 11.12642 1510 ft 152 kts 42°
2026-05-05 14:43 60.20699 11.14630 2174 ft 159 kts 81°
2026-05-05 14:43 60.20857 11.16842 2790 ft 164 kts 73°
2026-05-05 14:43 60.21134 11.19192 3318 ft 180 kts 73°
2026-05-05 14:43 60.21457 11.21739 3835 ft 196 kts 72°
2026-05-05 14:44 60.21808 11.24511 4309 ft 212 kts 73°
2026-05-05 14:44 60.22181 11.27494 4779 ft 228 kts 73°
2026-05-05 14:44 60.22581 11.30732 5229 ft 249 kts 73°
2026-05-05 14:44 60.23013 11.34243 5905 ft 267 kts 73°
2026-05-05 14:45 60.23485 11.37975 6597 ft 282 kts 73°
2026-05-05 14:45 60.23974 11.41817 6824 ft 284 kts 73°
2026-05-05 14:45 60.24399 11.45693 7078 ft 284 kts 84°
2026-05-05 14:45 60.24197 11.49619 7926 ft 290 kts 108°
2026-05-05 14:46 60.23273 11.53199 8912 ft 291 kts 131°
2026-05-05 14:46 60.21739 11.55802 9836 ft 289 kts 155°
2026-05-05 14:46 60.19850 11.57337 10478 ft 300 kts 163°
2026-05-05 14:46 60.17823 11.58795 10960 ft 317 kts 163°
2026-05-05 14:47 60.15701 11.60411 11439 ft 334 kts 157°
2026-05-05 14:47 60.13648 11.62714 12148 ft 341 kts 151°
2026-05-05 14:47 60.11684 11.65440 12914 ft 348 kts 139°
2026-05-05 14:47 60.10114 11.69174 13680 ft 354 kts 122°
2026-05-05 14:48 60.09119 11.73732 14323 ft 360 kts 104°
2026-05-05 14:48 60.08813 11.78736 14901 ft 366 kts 86°
2026-05-05 14:48 60.09223 11.83804 15444 ft 371 kts 73°
2026-05-05 14:48 60.09875 11.88874 15978 ft 380 kts 73°
2026-05-05 14:49 60.10533 11.94054 16521 ft 388 kts 73°
2026-05-05 14:49 60.11197 11.99349 17076 ft 395 kts 73°
2026-05-05 14:49 60.11859 12.04689 17616 ft 402 kts 74°
2026-05-05 14:49 60.12541 12.10218 18159 ft 410 kts 74°
2026-05-05 14:50 60.13229 12.15832 18620 ft 418 kts 74°
2026-05-05 14:50 60.13930 12.21564 19090 ft 426 kts 74°
2026-05-05 14:50 60.14639 12.27380 19575 ft 433 kts 74°
2026-05-05 14:50 60.15357 12.33301 20048 ft 440 kts 74°
2026-05-05 14:51 60.16084 12.39319 20528 ft 447 kts 74°
2026-05-05 14:51 60.16823 12.45452 20977 ft 455 kts 75°
2026-05-05 14:51 60.17360 12.51674 21436 ft 463 kts 84°
2026-05-05 14:51 60.17439 12.58174 21891 ft 468 kts 95°
2026-05-05 14:52 60.17084 12.64709 22336 ft 473 kts 101°
2026-05-05 14:52 60.16652 12.71314 22777 ft 480 kts 101°
2026-05-05 14:52 60.16222 12.78001 23228 ft 487 kts 101°
2026-05-05 14:52 60.15790 12.84806 23634 ft 493 kts 101°
2026-05-05 14:53 60.15356 12.91670 24070 ft 497 kts 101°
2026-05-05 14:53 60.14918 12.98556 24533 ft 499 kts 101°
2026-05-05 14:53 60.14475 13.05417 25004 ft 501 kts 101°
2026-05-05 14:53 60.14019 13.12380 25473 ft 503 kts 101°
2026-05-05 14:54 60.13553 13.19353 25944 ft 505 kts 102°
2026-05-05 14:54 60.13079 13.26346 26405 ft 507 kts 102°
2026-05-05 14:54 60.12600 13.33374 26861 ft 509 kts 102°
2026-05-05 14:54 60.12121 13.40424 27289 ft 511 kts 102°
2026-05-05 14:55 60.11637 13.47494 27736 ft 513 kts 102°
2026-05-05 14:55 60.11145 13.54587 28173 ft 514 kts 102°
2026-05-05 14:55 60.10645 13.61732 28601 ft 516 kts 102°
2026-05-05 14:55 60.10148 13.68788 28816 ft 517 kts 102°
2026-05-05 14:56 60.09647 13.75906 28866 ft 500 kts 103°
2026-05-05 14:56 60.09178 13.82606 28867 ft 485 kts 103°
2026-05-05 14:56 60.08209 13.96037 28868 ft 487 kts 103°
2026-05-05 14:57 60.07213 14.09427 28741 ft 481 kts 103°
2026-05-05 14:57 60.06722 14.16027 28362 ft 476 kts 104°
2026-05-05 14:57 60.06232 14.22590 27935 ft 473 kts 104°
2026-05-05 14:58 60.05747 14.29093 27514 ft 471 kts 104°
2026-05-05 14:58 60.05258 14.35564 27090 ft 469 kts 104°
2026-05-05 14:58 60.04766 14.41996 26673 ft 467 kts 104°
2026-05-05 14:58 60.04279 14.48322 26248 ft 464 kts 104°
2026-05-05 14:59 60.03785 14.54702 25823 ft 462 kts 104°
2026-05-05 14:59 60.03292 14.61038 25404 ft 460 kts 104°
2026-05-05 14:59 60.02797 14.67352 24980 ft 459 kts 104°
2026-05-05 14:59 60.02298 14.73639 24561 ft 457 kts 105°
2026-05-05 15:00 60.01799 14.79892 24141 ft 455 kts 105°
2026-05-05 15:00 60.01469 14.84029 23869 ft 453 kts 105°
2026-05-05 15:00 60.00801 14.92330 23267 ft 451 kts 105°
2026-05-05 15:00 60.00303 14.98508 22814 ft 447 kts 105°
2026-05-05 15:01 59.99811 15.04612 22405 ft 443 kts 104°
2026-05-05 15:01 59.99323 15.10655 22004 ft 438 kts 104°
2026-05-05 15:01 59.98835 15.16633 21603 ft 434 kts 104°
2026-05-05 15:01 59.98347 15.22547 21198 ft 430 kts 104°
2026-05-05 15:02 59.97858 15.28407 20814 ft 425 kts 104°
2026-05-05 15:02 59.97376 15.34137 20428 ft 422 kts 104°
2026-05-05 15:02 59.96891 15.39881 20028 ft 418 kts 104°
2026-05-05 15:02 59.96406 15.45578 19643 ft 414 kts 104°
2026-05-05 15:03 59.95924 15.51216 19264 ft 410 kts 104°
2026-05-05 15:03 59.95443 15.56802 18891 ft 407 kts 104°
2026-05-05 15:03 59.94964 15.62355 18505 ft 404 kts 104°
2026-05-05 15:03 59.94651 15.66001 18250 ft 402 kts 104°
2026-05-05 15:04 59.94182 15.71471 17840 ft 398 kts 104°
2026-05-05 15:04 59.93716 15.76887 17481 ft 393 kts 103°
2026-05-05 15:04 59.93254 15.82220 17129 ft 387 kts 103°
2026-05-05 15:04 59.92793 15.87471 16779 ft 382 kts 103°
2026-05-05 15:05 59.91875 15.97762 16083 ft 372 kts 103°
2026-05-05 15:05 59.91421 16.02800 15754 ft 366 kts 103°
2026-05-05 15:05 59.90973 16.07761 15423 ft 361 kts 102°
2026-05-05 15:06 59.90532 16.12652 15100 ft 356 kts 102°
2026-05-05 15:06 59.90099 16.17484 14778 ft 351 kts 102°
2026-05-05 15:06 59.89669 16.22241 14457 ft 347 kts 102°
2026-05-05 15:06 59.89241 16.26938 14148 ft 342 kts 101°
2026-05-05 15:07 59.88817 16.31558 13849 ft 337 kts 101°
2026-05-05 15:07 59.88396 16.36114 13531 ft 333 kts 101°
2026-05-05 15:07 59.87981 16.40620 13163 ft 329 kts 101°
2026-05-05 15:07 59.87570 16.45074 12778 ft 326 kts 101°
2026-05-05 15:08 59.87159 16.49495 12398 ft 323 kts 101°
2026-05-05 15:08 59.86750 16.53872 12024 ft 320 kts 101°
2026-05-05 15:08 59.86090 16.58050 11675 ft 314 kts 121°
2026-05-05 15:08 59.84924 16.61680 11309 ft 310 kts 127°
2026-05-05 15:09 59.83685 16.65194 10934 ft 308 kts 127°
2026-05-05 15:09 59.82468 16.68602 10837 ft 307 kts 127°
2026-05-05 15:09 59.81229 16.72063 10856 ft 308 kts 127°
2026-05-05 15:09 59.79989 16.75527 10855 ft 308 kts 127°
2026-05-05 15:10 59.78746 16.79005 10797 ft 307 kts 127°
2026-05-05 15:10 59.77512 16.82451 10549 ft 305 kts 127°
2026-05-05 15:10 59.76283 16.85872 10393 ft 304 kts 127°
2026-05-05 15:10 59.75060 16.89265 10233 ft 298 kts 127°
2026-05-05 15:11 59.73860 16.92589 10005 ft 295 kts 127°
2026-05-05 15:11 59.72664 16.95893 9744 ft 294 kts 127°
2026-05-05 15:11 59.71469 16.99184 9470 ft 293 kts 127°
2026-05-05 15:11 59.70280 17.02456 9188 ft 292 kts 127°
2026-05-05 15:12 59.69092 17.05711 8908 ft 291 kts 127°
2026-05-05 15:12 59.67907 17.08947 8637 ft 290 kts 127°
2026-05-05 15:12 59.66725 17.12171 8369 ft 289 kts 127°
2026-05-05 15:12 59.65545 17.15386 8116 ft 288 kts 127°
2026-05-05 15:13 59.64364 17.18592 7927 ft 288 kts 127°
2026-05-05 15:13 59.63185 17.21782 7737 ft 287 kts 127°
2026-05-05 15:13 59.62025 17.24918 7554 ft 286 kts 127°
2026-05-05 15:13 59.60851 17.28090 7362 ft 285 kts 127°
2026-05-05 15:14 59.60455 17.29159 7300 ft 285 kts 128°
2026-05-05 15:14 59.60073 17.30187 7238 ft 284 kts 129°
2026-05-05 15:14 59.58880 17.33299 7076 ft 285 kts 128°
2026-05-05 15:14 59.57703 17.36455 7005 ft 285 kts 127°
2026-05-05 15:15 59.56527 17.39608 6957 ft 286 kts 128°
2026-05-05 15:15 59.55356 17.42750 6738 ft 283 kts 127°
2026-05-05 15:15 59.54205 17.45838 6545 ft 283 kts 127°
2026-05-05 15:15 59.53042 17.48953 6340 ft 282 kts 127°
2026-05-05 15:16 59.51876 17.52055 6126 ft 281 kts 128°
2026-05-05 15:16 59.50713 17.55145 5907 ft 280 kts 128°
2026-05-05 15:16 59.49571 17.58186 5689 ft 269 kts 128°
2026-05-05 15:16 59.48492 17.61064 5491 ft 253 kts 128°
2026-05-05 15:17 59.47472 17.63776 5288 ft 242 kts 128°
2026-05-05 15:17 59.46462 17.66457 5076 ft 246 kts 128°
2026-05-05 15:17 59.45442 17.69166 4868 ft 246 kts 128°
2026-05-05 15:17 59.44423 17.71877 4664 ft 246 kts 128°
2026-05-05 15:18 59.43410 17.74576 4448 ft 245 kts 128°
2026-05-05 15:18 59.42393 17.77281 4145 ft 247 kts 128°
2026-05-05 15:18 59.41560 17.80174 4019 ft 242 kts 104°
2026-05-05 15:18 59.41553 17.83457 4028 ft 243 kts 71°
2026-05-05 15:19 59.42393 17.86260 4028 ft 238 kts 43°
2026-05-05 15:19 59.43582 17.88511 4032 ft 237 kts 39°
2026-05-05 15:19 59.44881 17.90560 4009 ft 253 kts 23°
2026-05-05 15:19 59.46621 17.91304 3728 ft 260 kts 360°
2026-05-05 15:20 59.48406 17.91457 3623 ft 250 kts 359°
2026-05-05 15:20 59.50074 17.91586 3593 ft 229 kts 359°
2026-05-05 15:20 59.51600 17.91716 3441 ft 211 kts 359°
2026-05-05 15:20 59.53017 17.92015 3085 ft 208 kts 11°
2026-05-05 15:21 59.54418 17.92662 2672 ft 206 kts
2026-05-05 15:21 59.55817 17.93123 2208 ft 199 kts
2026-05-05 15:21 59.57165 17.93463 1523 ft 192 kts
2026-05-05 15:21 59.58425 17.93747 1197 ft 170 kts
2026-05-05 15:22 59.59560 17.94031 1032 ft 158 kts
2026-05-05 15:22 59.60576 17.94334 847 ft 144 kts
2026-05-05 15:22 59.61560 17.94676 473 ft 143 kts
2026-05-05 15:22 59.62513 17.95036 180 ft 133 kts
2026-05-05 15:23 59.63408 17.95344 123 ft 119 kts
2026-05-05 15:23 59.63939 17.95546 113 ft 45 kts
2026-05-05 15:23 59.64139 17.95533 111 ft 26 kts 346°
2026-05-05 15:23 59.64260 17.95445 108 ft 17 kts 339°
2026-05-05 15:24 59.64344 17.95384 106 ft 0 kts 338°
2026-05-05 15:24 59.64374 17.95361 106 ft 12 kts 340°
2026-05-05 15:24 59.64487 17.95336 105 ft 20 kts 11°
2026-05-05 15:25 59.64637 17.95391 105 ft 23 kts 11°
2026-05-05 15:25 59.64794 17.95466 107 ft 22 kts
2026-05-05 15:25 59.64945 17.95504 111 ft 22 kts
2026-05-05 15:25 59.65088 17.95481 114 ft 19 kts 347°
2026-05-05 15:26 59.65214 17.95424 121 ft 18 kts 346°
2026-05-05 15:26 59.65335 17.95358 125 ft 18 kts 345°
2026-05-05 15:26 59.65464 17.95296 126 ft 20 kts 345°
2026-05-05 15:26 59.65610 17.95219 127 ft 23 kts 346°
2026-05-05 15:27 59.65744 17.95077 127 ft 21 kts 286°
2026-05-05 15:27 59.65719 17.94792 122 ft 23 kts 257°
2026-05-05 15:27 59.65679 17.94474 125 ft 23 kts 256°
2026-05-05 15:27 59.65638 17.94145 121 ft 24 kts 257°
2026-05-05 15:28 59.65611 17.93930 114 ft 0 kts 256°
2026-05-05 15:28 59.65596 17.93818 113 ft 21 kts 256°
2026-05-05 15:28 59.65557 17.93492 112 ft 24 kts 256°
2026-05-05 15:29 59.65512 17.93150 111 ft 26 kts 254°
2026-05-05 15:29 59.65467 17.92858 111 ft 20 kts 250°
2026-05-05 15:29 59.65388 17.92684 112 ft 14 kts 165°
2026-05-05 15:29 59.65345 17.92761 112 ft 7 kts 95°
2026-05-05 15:30 59.65336 17.92863 112 ft 4 kts 100°
2026-05-05 15:30 59.65333 17.92895 112 ft 2 kts 100°
2026-05-05 15:30 59.65333 17.92901 112 ft 0 kts 100°